When you browse on this site, cookies collect data to enhance your experience and personalize the content and advertising you see.
Visit our Privacy Policy to learn more. By continuing to use the site, you agree to this use of cookies and data.
  • In Sweden
  • List of Countries
  • For 7 days
  • Water Temperature
  • Weather Map
  • Weather Widgets
  • user-avatar
    Login

    Hourly Weather Nagykarácsony

    Today, 1 June, Monday

    Time Temperature Precipitation Wind Pressure Humidity
    00:00 +10°C° 0.1 mm 3 mps 745 mmHg 91%
    01:00 +11°C° 0 mm 4 mps 746 mmHg 94%
    02:00 +11°C° 0.1 mm 4 mps 745 mmHg 94%
    03:00 +11°C° 0.1 mm 4 mps 745 mmHg 93%
    04:00 +11°C° 0.1 mm 4 mps 745 mmHg 93%
    05:00 +11°C° 0.1 mm 4 mps 745 mmHg 91%
    06:00 +11°C° 0.1 mm 4 mps 746 mmHg 90%
    07:00 +12°C° 0 mm 3 mps 746 mmHg 87%
    08:00 +14°C° 0 mm 4 mps 746 mmHg 79%
    09:00 +17°C° 0 mm 4 mps 746 mmHg 71%
    10:00 +19°C° 0 mm 4 mps 746 mmHg 63%
    11:00 +20°C° 0 mm 4 mps 746 mmHg 58%
    12:00 +21°C° 0 mm 3 mps 746 mmHg 53%
    13:00 +22°C° 0 mm 3 mps 746 mmHg 48%
    14:00 +22°C° 0.1 mm 3 mps 746 mmHg 51%
    15:00 +22°C° 0.1 mm 4 mps 745 mmHg 53%
    16:00 +21°C° 0.1 mm 4 mps 745 mmHg 56%
    17:00 +20°C° 0.3 mm 4 mps 745 mmHg 63%
    18:00 +19°C° 0.3 mm 4 mps 745 mmHg 69%
    19:00 +17°C° 0.3 mm 3 mps 745 mmHg 76%
    20:00 +15°C° 0.1 mm 4 mps 745 mmHg 79%
    21:00 +14°C° 0.1 mm 4 mps 745 mmHg 82%
    22:00 +12°C° 0.1 mm 4 mps 745 mmHg 84%
    23:00 +12°C° 0 mm 4 mps 745 mmHg 82%

    Tomorrow, 2 June, Tuesday

    Time Temperature Precipitation Wind Pressure Humidity
    00:00 +11°C° 0 mm 3 mps 746 mmHg 80%
    01:00 +11°C° 0 mm 3 mps 746 mmHg 78%
    02:00 +11°C° 0 mm 3 mps 746 mmHg 78%
    03:00 +10°C° 0 mm 2 mps 746 mmHg 78%
    04:00 +9°C° 0 mm 2 mps 745 mmHg 78%
    05:00 +10°C° 0 mm 2 mps 746 mmHg 75%
    06:00 +11°C° 0 mm 3 mps 746 mmHg 71%
    07:00 +12°C° 0 mm 4 mps 746 mmHg 68%
    08:00 +14°C° 0.2 mm 4 mps 746 mmHg 65%
    09:00 +15°C° 0.2 mm 5 mps 746 mmHg 62%
    10:00 +16°C° 0.2 mm 6 mps 746 mmHg 60%
    11:00 +17°C° 0.4 mm 6 mps 745 mmHg 57%
    12:00 +17°C° 0.4 mm 6 mps 745 mmHg 55%
    13:00 +19°C° 0.4 mm 6 mps 744 mmHg 53%
    14:00 +19°C° 0 mm 5 mps 744 mmHg 52%
    15:00 +19°C° 0 mm 5 mps 743 mmHg 51%
    16:00 +20°C° 0 mm 5 mps 743 mmHg 50%
    17:00 +18°C° 0 mm 4 mps 743 mmHg 56%
    18:00 +17°C° 0 mm 3 mps 742 mmHg 63%
    19:00 +16°C° 0 mm 2 mps 742 mmHg 69%
    20:00 +13°C° 0 mm 3 mps 742 mmHg 73%
    21:00 +12°C° 0 mm 3 mps 742 mmHg 76%
    22:00 +11°C° 0 mm 3 mps 743 mmHg 79%
    23:00 +11°C° 0 mm 3 mps 742 mmHg 80%

    Day after tomorrow, 3 June, Wednesday

    Time Temperature Precipitation Wind Pressure Humidity
    00:00 +10°C° 0 mm 3 mps 742 mmHg 80%
    01:00 +8°C° 0 mm 4 mps 742 mmHg 81%
    02:00 +8°C° 0 mm 4 mps 742 mmHg 81%
    03:00 +8°C° 0 mm 4 mps 741 mmHg 81%
    04:00 +7°C° 0 mm 4 mps 741 mmHg 81%
    05:00 +10°C° 0 mm 4 mps 741 mmHg 77%
    06:00 +12°C° 0 mm 5 mps 741 mmHg 74%
    07:00 +14°C° 0 mm 5 mps 741 mmHg 71%
    08:00 +14°C° 0 mm 5 mps 741 mmHg 69%
    09:00 +15°C° 0 mm 5 mps 740 mmHg 67%
    10:00 +16°C° 0 mm 5 mps 740 mmHg 65%
    11:00 +18°C° 0.4 mm 4 mps 740 mmHg 65%
    12:00 +19°C° 0.4 mm 4 mps 739 mmHg 65%
    13:00 +19°C° 0.4 mm 4 mps 739 mmHg 65%
    14:00 +20°C° 0.6 mm 4 mps 739 mmHg 65%
    15:00 +20°C° 0.6 mm 4 mps 738 mmHg 66%
    16:00 +20°C° 0.6 mm 4 mps 738 mmHg 66%
    17:00 +19°C° 0.3 mm 3 mps 738 mmHg 71%
    18:00 +18°C° 0.3 mm 2 mps 738 mmHg 75%
    19:00 +18°C° 0.3 mm 1 mps 738 mmHg 80%
    20:00 +16°C° 0.1 mm 2 mps 738 mmHg 83%
    21:00 +15°C° 0.1 mm 2 mps 738 mmHg 85%
    22:00 +14°C° 0.1 mm 2 mps 738 mmHg 88%
    23:00 +14°C° 0.2 mm 2 mps 738 mmHg 88%

    4 June, Thursday

    Time Temperature Precipitation Wind Pressure Humidity
    00:00 +14°C° 0.2 mm 2 mps 737 mmHg 88%
    01:00 +14°C° 0.2 mm 1 mps 737 mmHg 89%
    02:00 +13°C° 0.2 mm 1 mps 737 mmHg 90%
    03:00 +13°C° 0.2 mm 1 mps 737 mmHg 91%
    04:00 +12°C° 0.2 mm 1 mps 736 mmHg 92%
    05:00 +14°C° 0.1 mm 2 mps 736 mmHg 88%
    06:00 +14°C° 0.1 mm 3 mps 736 mmHg 85%
    07:00 +16°C° 0.1 mm 3 mps 736 mmHg 81%
    08:00 +18°C° 0.1 mm 4 mps 736 mmHg 78%
    09:00 +19°C° 0.1 mm 5 mps 736 mmHg 74%
    10:00 +20°C° 0.1 mm 5 mps 736 mmHg 71%
    11:00 +21°C° 0.2 mm 6 mps 736 mmHg 69%
    12:00 +22°C° 0.2 mm 6 mps 736 mmHg 66%
    13:00 +23°C° 0.2 mm 6 mps 735 mmHg 64%
    14:00 +23°C° 0.4 mm 6 mps 735 mmHg 63%
    15:00 +24°C° 0.4 mm 6 mps 735 mmHg 63%
    16:00 +25°C° 0.4 mm 5 mps 734 mmHg 62%
    17:00 +23°C° 0.1 mm 5 mps 734 mmHg 65%
    18:00 +21°C° 0.1 mm 5 mps 734 mmHg 68%
    19:00 +20°C° 0.1 mm 5 mps 734 mmHg 71%
    20:00 +19°C° 0 mm 5 mps 734 mmHg 70%
    21:00 +19°C° 0 mm 5 mps 734 mmHg 69%
    22:00 +17°C° 0 mm 5 mps 734 mmHg 69%
    23:00 +17°C° 0 mm 5 mps 734 mmHg 69%

    5 June, Friday

    Time Temperature Precipitation Wind Pressure Humidity
    00:00 +16°C° 0 mm 5 mps 734 mmHg 69%
    01:00 +17°C° 0 mm 4 mps 733 mmHg 69%
    02:00 +15°C° 0.1 mm 4 mps 733 mmHg 70%
    03:00 +15°C° 0.1 mm 4 mps 734 mmHg 71%
    04:00 +14°C° 0.1 mm 4 mps 734 mmHg 72%
    05:00 +15°C° 0.2 mm 4 mps 734 mmHg 73%
    06:00 +17°C° 0.2 mm 4 mps 734 mmHg 74%
    07:00 +18°C° 0.2 mm 4 mps 734 mmHg 75%
    08:00 +20°C° 0.1 mm 5 mps 734 mmHg 70%
    09:00 +22°C° 0.1 mm 5 mps 734 mmHg 66%
    10:00 +24°C° 0.1 mm 6 mps 734 mmHg 61%
    11:00 +23°C° 1.2 mm 5 mps 734 mmHg 64%
    12:00 +23°C° 1.2 mm 5 mps 733 mmHg 67%
    13:00 +23°C° 1.2 mm 5 mps 733 mmHg 70%
    14:00 +22°C° 1.8 mm 5 mps 733 mmHg 75%
    15:00 +21°C° 1.8 mm 5 mps 734 mmHg 80%
    16:00 +19°C° 1.8 mm 6 mps 734 mmHg 85%
    17:00 +16°C° 4.3 mm 6 mps 734 mmHg 88%
    18:00 +14°C° 4.3 mm 7 mps 735 mmHg 90%
    19:00 +11°C° 4.3 mm 7 mps 735 mmHg 93%
    20:00 +11°C° 0.4 mm 7 mps 736 mmHg 91%
    21:00 +10°C° 0.4 mm 7 mps 736 mmHg 89%
    22:00 +10°C° 0.4 mm 7 mps 737 mmHg 87%
    23:00 +10°C° 0 mm 6 mps 737 mmHg 85%

    6 June, Saturday

    Time Temperature Precipitation Wind Pressure Humidity
    00:00 +10°C° 0 mm 5 mps 738 mmHg 83%
    01:00 +10°C° 0 mm 5 mps 738 mmHg 81%
    02:00 +10°C° 0 mm 5 mps 738 mmHg 78%
    03:00 +11°C° 0 mm 6 mps 739 mmHg 74%
    04:00 +11°C° 0 mm 6 mps 739 mmHg 71%
    05:00 +11°C° 0 mm 6 mps 740 mmHg 69%
    06:00 +12°C° 0 mm 7 mps 741 mmHg 68%
    07:00 +14°C° 0 mm 7 mps 741 mmHg 66%
    08:00 +15°C° 0 mm 7 mps 741 mmHg 62%
    09:00 +16°C° 0 mm 7 mps 742 mmHg 59%
    10:00 +18°C° 0 mm 7 mps 742 mmHg 55%
    11:00 +19°C° 0 mm 6 mps 742 mmHg 54%
    12:00 +20°C° 0 mm 6 mps 742 mmHg 52%
    13:00 +21°C° 0 mm 5 mps 742 mmHg 51%
    14:00 +21°C° 0 mm 5 mps 742 mmHg 52%
    15:00 +21°C° 0 mm 5 mps 742 mmHg 54%
    16:00 +21°C° 0 mm 5 mps 742 mmHg 55%
    17:00 +20°C° 0 mm 4 mps 742 mmHg 61%
    18:00 +19°C° 0 mm 3 mps 742 mmHg 67%
    19:00 +17°C° 0 mm 2 mps 742 mmHg 72%
    20:00 +16°C° 0 mm 2 mps 743 mmHg 73%
    21:00 +15°C° 0 mm 2 mps 743 mmHg 74%
    22:00 +14°C° 0 mm 2 mps 743 mmHg 75%
    23:00 +14°C° 0 mm 2 mps 743 mmHg 76%
    Show more